• In Belarus
  • List of Countries
  • For 7 days
  • Water Temperature
  • Satellite Maps
  • Weather Map
  • Weather Widgets
  • user-avatar
    Login

    Hourly Weather Rozgol

    Today, 23 March, Saturday

    Time Temperature Precipitation Wind Pressure Humidity
    00:00 +6°C° 0 mm 1 mps 750 mmHg 91%
    01:00 +6°C° 0 mm 1 mps 749 mmHg 91%
    02:00 +5°C° 0 mm 1 mps 749 mmHg 91%
    03:00 +5°C° 0 mm 1 mps 749 mmHg 91%
    04:00 +5°C° 0 mm 1 mps 748 mmHg 91%
    05:00 +5°C° 0 mm 1 mps 748 mmHg 89%
    06:00 +4°C° 0 mm 2 mps 748 mmHg 87%
    07:00 +5°C° 0 mm 2 mps 748 mmHg 85%
    08:00 +7°C° 0 mm 2 mps 748 mmHg 77%
    09:00 +8°C° 0 mm 2 mps 748 mmHg 69%
    10:00 +10°C° 0 mm 2 mps 748 mmHg 61%
    11:00 +13°C° 0 mm 2 mps 747 mmHg 56%
    12:00 +13°C° 0 mm 3 mps 747 mmHg 50%
    13:00 +14°C° 0 mm 3 mps 747 mmHg 45%
    14:00 +15°C° 0 mm 2 mps 746 mmHg 45%
    15:00 +15°C° 0 mm 2 mps 746 mmHg 45%
    16:00 +16°C° 0 mm 2 mps 745 mmHg 45%
    17:00 +14°C° 0 mm 2 mps 745 mmHg 51%
    18:00 +13°C° 0 mm 2 mps 745 mmHg 56%
    19:00 +12°C° 0 mm 1 mps 745 mmHg 61%
    20:00 +11°C° 0 mm 1 mps 745 mmHg 64%
    21:00 +10°C° 0 mm 2 mps 745 mmHg 66%
    22:00 +9°C° 0 mm 2 mps 745 mmHg 69%
    23:00 +9°C° 0 mm 2 mps 745 mmHg 75%

    Tomorrow, 24 March, Sunday

    Time Temperature Precipitation Wind Pressure Humidity
    00:00 +9°C° 0 mm 2 mps 745 mmHg 80%
    01:00 +8°C° 0 mm 2 mps 745 mmHg 86%
    02:00 +8°C° 0 mm 3 mps 745 mmHg 85%
    03:00 +7°C° 0 mm 4 mps 745 mmHg 84%
    04:00 +6°C° 0 mm 4 mps 745 mmHg 84%
    05:00 +6°C° 0 mm 4 mps 745 mmHg 81%
    06:00 +5°C° 0 mm 4 mps 745 mmHg 77%
    07:00 +4°C° 0 mm 4 mps 746 mmHg 74%
    08:00 +5°C° 0 mm 3 mps 746 mmHg 66%
    09:00 +7°C° 0 mm 3 mps 746 mmHg 58%
    10:00 +8°C° 0 mm 3 mps 746 mmHg 50%
    11:00 +9°C° 0 mm 3 mps 745 mmHg 45%
    12:00 +10°C° 0 mm 3 mps 745 mmHg 41%
    13:00 +11°C° 0 mm 3 mps 744 mmHg 36%
    14:00 +10°C° 0 mm 3 mps 744 mmHg 37%
    15:00 +10°C° 0 mm 3 mps 743 mmHg 37%
    16:00 +10°C° 0 mm 3 mps 743 mmHg 37%
    17:00 +9°C° 0 mm 3 mps 743 mmHg 41%
    18:00 +9°C° 0 mm 2 mps 743 mmHg 44%
    19:00 +8°C° 0 mm 2 mps 743 mmHg 48%
    20:00 +7°C° 0 mm 2 mps 743 mmHg 52%
    21:00 +6°C° 0 mm 2 mps 743 mmHg 55%
    22:00 +5°C° 0 mm 2 mps 742 mmHg 58%
    23:00 +5°C° 0 mm 2 mps 742 mmHg 61%

    Day after tomorrow, 25 March, Monday

    Time Temperature Precipitation Wind Pressure Humidity
    00:00 +4°C° 0 mm 2 mps 742 mmHg 64%
    01:00 +3°C° 0 mm 2 mps 742 mmHg 66%
    02:00 +3°C° 0 mm 2 mps 742 mmHg 68%
    03:00 +3°C° 0 mm 2 mps 741 mmHg 70%
    04:00 +2°C° 0 mm 2 mps 741 mmHg 71%
    05:00 +3°C° 0 mm 2 mps 741 mmHg 71%
    06:00 +3°C° 0 mm 2 mps 741 mmHg 70%
    07:00 +3°C° 0 mm 2 mps 740 mmHg 69%
    08:00 +3°C° 0 mm 3 mps 740 mmHg 63%
    09:00 +4°C° 0 mm 4 mps 740 mmHg 57%
    10:00 +6°C° 0 mm 5 mps 739 mmHg 51%
    11:00 +5°C° 0 mm 6 mps 738 mmHg 48%
    12:00 +7°C° 0 mm 6 mps 738 mmHg 46%
    13:00 +8°C° 0 mm 6 mps 737 mmHg 43%
    14:00 +7°C° 0.2 mm 6 mps 736 mmHg 47%
    15:00 +6°C° 0.2 mm 7 mps 736 mmHg 51%
    16:00 +5°C° 0.2 mm 7 mps 736 mmHg 55%
    17:00 +4°C° 0.5 mm 6 mps 736 mmHg 61%
    18:00 +3°C° 0.5 mm 6 mps 736 mmHg 66%
    19:00 +2°C° 0.5 mm 5 mps 736 mmHg 72%
    20:00 +1°C° 0 mm 5 mps 737 mmHg 73%
    21:00 +1°C° 0 mm 4 mps 737 mmHg 75%
    22:00 0°C° 0 mm 4 mps 738 mmHg 76%
    23:00 0°C° 0 mm 4 mps 738 mmHg 79%

    26 March, Tuesday

    Time Temperature Precipitation Wind Pressure Humidity
    00:00 -1°C° 0 mm 4 mps 739 mmHg 81%
    01:00 -1°C° 0 mm 4 mps 739 mmHg 84%
    02:00 -1°C° 0 mm 4 mps 740 mmHg 86%
    03:00 -2°C° 0 mm 4 mps 740 mmHg 89%
    04:00 -2°C° 0 mm 5 mps 741 mmHg 91%
    05:00 -2°C° 0.2 mm 5 mps 742 mmHg 89%
    06:00 -2°C° 0.2 mm 6 mps 743 mmHg 86%
    07:00 -1°C° 0.2 mm 7 mps 744 mmHg 84%
    08:00 -1°C° 0.1 mm 6 mps 744 mmHg 81%
    09:00 -1°C° 0.1 mm 6 mps 745 mmHg 78%
    10:00 +1°C° 0.1 mm 6 mps 745 mmHg 75%
    11:00 +1°C° 0 mm 6 mps 745 mmHg 70%
    12:00 +2°C° 0 mm 6 mps 746 mmHg 65%
    13:00 +3°C° 0 mm 5 mps 746 mmHg 59%
    14:00 +3°C° 0 mm 5 mps 746 mmHg 55%
    15:00 +5°C° 0 mm 5 mps 746 mmHg 51%
    16:00 +5°C° 0 mm 5 mps 745 mmHg 46%
    17:00 +4°C° 0 mm 4 mps 746 mmHg 51%
    18:00 +3°C° 0 mm 3 mps 746 mmHg 56%
    19:00 +2°C° 0 mm 3 mps 746 mmHg 61%
    20:00 +2°C° 0 mm 3 mps 746 mmHg 64%
    21:00 +2°C° 0 mm 3 mps 746 mmHg 67%
    22:00 +2°C° 0 mm 3 mps 745 mmHg 70%
    23:00 +2°C° 0.2 mm 3 mps 745 mmHg 76%

    27 March, Wednesday

    Time Temperature Precipitation Wind Pressure Humidity
    00:00 +1°C° 0.2 mm 4 mps 745 mmHg 82%
    01:00 +1°C° 0.2 mm 4 mps 745 mmHg 88%
    02:00 +1°C° 0 mm 4 mps 745 mmHg 90%
    03:00 +1°C° 0 mm 4 mps 745 mmHg 91%
    04:00 +1°C° 0 mm 4 mps 745 mmHg 93%
    05:00 +1°C° 0.1 mm 4 mps 746 mmHg 91%
    06:00 +2°C° 0.1 mm 3 mps 746 mmHg 90%
    07:00 +3°C° 0.1 mm 3 mps 746 mmHg 88%
    08:00 +3°C° 0.1 mm 3 mps 746 mmHg 84%
    09:00 +4°C° 0.1 mm 3 mps 747 mmHg 80%
    10:00 +5°C° 0.1 mm 3 mps 747 mmHg 75%
    11:00 +5°C° 0.1 mm 3 mps 747 mmHg 73%
    12:00 +7°C° 0.1 mm 3 mps 747 mmHg 71%
    13:00 +8°C° 0.1 mm 3 mps 747 mmHg 69%
    14:00 +8°C° 0.1 mm 3 mps 747 mmHg 67%
    15:00 +8°C° 0.1 mm 3 mps 747 mmHg 66%
    16:00 +8°C° 0.1 mm 3 mps 747 mmHg 64%
    17:00 +8°C° 0 mm 3 mps 748 mmHg 68%
    18:00 +7°C° 0 mm 2 mps 748 mmHg 73%
    19:00 +6°C° 0 mm 2 mps 748 mmHg 77%
    20:00 +6°C° 0 mm 2 mps 748 mmHg 80%
    21:00 +6°C° 0 mm 2 mps 749 mmHg 82%
    22:00 +6°C° 0 mm 2 mps 749 mmHg 85%
    23:00 +6°C° 0.2 mm 2 mps 749 mmHg 87%

    28 March, Thursday

    Time Temperature Precipitation Wind Pressure Humidity
    00:00 +5°C° 0.2 mm 2 mps 749 mmHg 90%
    01:00 +5°C° 0.2 mm 2 mps 750 mmHg 93%
    02:00 +5°C° 0.1 mm 2 mps 750 mmHg 93%
    03:00 +5°C° 0.1 mm 2 mps 750 mmHg 94%
    04:00 +6°C° 0.1 mm 1 mps 750 mmHg 95%
    05:00 +6°C° 0 mm 1 mps 751 mmHg 95%
    06:00 +6°C° 0 mm 1 mps 751 mmHg 94%
    07:00 +7°C° 0 mm 1 mps 752 mmHg 94%
    08:00 +7°C° 0 mm 1 mps 752 mmHg 89%
    09:00 +7°C° 0 mm 2 mps 752 mmHg 84%
    10:00 +8°C° 0 mm 2 mps 753 mmHg 79%
    11:00 +9°C° 0.1 mm 2 mps 753 mmHg 76%
    12:00 +9°C° 0.1 mm 2 mps 753 mmHg 72%
    13:00 +9°C° 0.1 mm 3 mps 753 mmHg 69%
    14:00 +9°C° 0 mm 3 mps 753 mmHg 69%
    15:00 +9°C° 0 mm 3 mps 753 mmHg 69%
    16:00 +9°C° 0 mm 3 mps 753 mmHg 69%
    17:00 +8°C° 0 mm 2 mps 753 mmHg 74%
    18:00 +7°C° 0 mm 2 mps 753 mmHg 79%
    19:00 +7°C° 0 mm 1 mps 753 mmHg 83%
    20:00 +6°C° 0 mm 1 mps 754 mmHg 84%
    21:00 +6°C° 0 mm 1 mps 754 mmHg 85%
    22:00 +4°C° 0 mm 0 mps 754 mmHg 86%
    23:00 +4°C° 0 mm 0 mps 754 mmHg 86%
    Show more